TimeMST,TemperatureF,Dew PointF,Humidity,Sea Level PressureIn,VisibilityMPH,Wind Direction,Wind SpeedMPH,Gust SpeedMPH,PrecipitationIn,Events,Conditions,WindDirDegrees,DateUTC
12:53 AM,28.9,24.1,82,30.38,10.0,Variable,3.5,-,N/A,,Clear,0,2013-03-02 07:53:00
1:53 AM,26.6,21.2,80,30.33,10.0,Calm,Calm,-,N/A,,Clear,0,2013-03-02 08:53:00
2:53 AM,27.0,21.9,81,30.36,10.0,Calm,Calm,-,N/A,,Clear,0,2013-03-02 09:53:00
3:53 AM,25.0,21.0,85,30.35,10.0,East,4.6,-,N/A,,Clear,80,2013-03-02 10:53:00
4:53 AM,24.8,19.4,80,30.30,10.0,Calm,Calm,-,N/A,,Clear,0,2013-03-02 11:53:00
5:53 AM,24.1,19.9,84,30.37,10.0,ESE,5.8,-,N/A,,Clear,110,2013-03-02 12:53:00
6:53 AM,26.1,21.0,81,30.36,10.0,East,3.5,-,N/A,,Clear,90,2013-03-02 13:53:00
7:53 AM,21.2,19.4,93,30.28,10.0,SSE,4.6,-,N/A,,Clear,160,2013-03-02 14:53:00
8:53 AM,28.9,24.1,82,30.34,10.0,SE,4.6,-,N/A,,Clear,130,2013-03-02 15:53:00
9:53 AM,34.0,26.1,73,30.31,10.0,East,3.5,-,N/A,,Clear,100,2013-03-02 16:53:00
10:53 AM,37.0,25.0,62,30.27,10.0,Calm,Calm,-,N/A,,Clear,0,2013-03-02 17:53:00
11:53 AM,45.0,27.0,49,30.23,10.0,Calm,Calm,-,N/A,,Mostly Cloudy,0,2013-03-02 18:53:00
12:53 PM,48.9,26.1,41,30.18,10.0,Calm,Calm,-,N/A,,Scattered Clouds,0,2013-03-02 19:53:00
1:53 PM,48.9,26.1,41,30.14,10.0,NNW,4.6,-,N/A,,Mostly Cloudy,340,2013-03-02 20:53:00
2:53 PM,48.9,26.1,41,30.12,10.0,North,9.2,-,N/A,,Partly Cloudy,10,2013-03-02 21:53:00
3:53 PM,50.0,25.0,38,30.09,10.0,Calm,Calm,-,N/A,,Mostly Cloudy,0,2013-03-02 22:53:00
4:53 PM,48.0,26.1,42,30.07,10.0,Calm,Calm,-,N/A,,Clear,0,2013-03-02 23:53:00
5:53 PM,44.1,28.0,53,30.07,10.0,Variable,4.6,-,N/A,,Clear,0,2013-03-03 00:53:00
6:53 PM,43.0,27.0,53,30.05,10.0,Calm,Calm,-,N/A,,Clear,0,2013-03-03 01:53:00
7:53 PM,37.9,28.0,68,30.08,10.0,SSW,3.5,-,N/A,,Clear,200,2013-03-03 02:53:00
8:53 PM,37.0,28.0,70,30.02,10.0,South,6.9,-,N/A,,Partly Cloudy,180,2013-03-03 03:53:00
9:53 PM,37.0,27.0,67,29.98,10.0,NNW,5.8,-,N/A,,Scattered Clouds,340,2013-03-03 04:53:00
10:53 PM,33.1,27.0,78,29.96,10.0,Variable,3.5,-,N/A,,Overcast,0,2013-03-03 05:53:00
11:53 PM,32.0,27.0,82,29.92,10.0,North,3.5,-,N/A,,Overcast,360,2013-03-03 06:53:00